H1 CPF 2 NER 2021 7 16 9 197 01 glonass105 H2 0705202 9105 32276 2021 7 16 0 0 0 2021 7 19 23 45 0 900 1 1 0 0 0 1 H9 10 0 59411 0.00000 0 2722293.081 -21791006.234 -13010167.820 10 0 59411 900.00000 0 2849695.300 -20020667.432 -15571924.432 10 0 59411 1800.00000 0 3184622.947 -17978155.508 -17831746.825 10 0 59411 2700.00000 0 3753846.560 -15723311.537 -19745754.367 10 0 59411 3600.00000 0 4572331.897 -13321934.882 -21276745.810 10 0 59411 4500.00000 0 5642397.178 -10843188.116 -22394922.429 10 0 59411 5400.00000 0 6953409.994 -8356875.087 -23078470.149 10 0 59411 6300.00000 0 8482038.505 -5930704.363 -23313989.361 10 0 59411 7200.00000 0 10193048.209 -3627651.276 -23096763.808 10 0 59411 8100.00000 0 12040612.902 -1503527.616 -22430862.839 10 0 59411 9000.00000 0 13970086.972 395140.316 -21329074.271 10 0 59411 9900.00000 0 15920166.496 2032837.099 -19812668.180 10 0 59411 10800.00000 0 17825350.151 3386315.261 -17910995.129 10 0 59411 11700.00000 0 19618597.858 4445331.543 -15660925.476 10 0 59411 12600.00000 0 21234076.115 5212831.574 -13106139.701 10 0 59411 13500.00000 0 22609874.858 5704575.404 -10296282.757 10 0 59411 14400.00000 0 23690581.229 5948219.936 -7285998.432 10 0 59411 15300.00000 0 24429601.147 5981897.468 -4133862.508 10 0 59411 16200.00000 0 24791129.951 5852351.166 -901235.882 10 0 59411 17100.00000 0 24751687.992 5612707.422 2348939.339 10 0 59411 18000.00000 0 24301155.442 5319980.668 5553376.111 10 0 59411 18900.00000 0 23443261.965 5032417.883 8649685.833 10 0 59411 19800.00000 0 22195510.183 4806796.868 11577603.314 10 0 59411 20700.00000 0 20588536.109 4695794.246 14280168.196 10 0 59411 21600.00000 0 18664933.744 4745536.012 16704838.932 10 0 59411 22500.00000 0 16477593.765 4993435.333 18804517.031 10 0 59411 23400.00000 0 14087626.748 5466409.762 20538461.403 10 0 59411 24300.00000 0 11561958.586 6179553.517 21873075.267 10 0 59411 25200.00000 0 8970699.211 7135320.959 22782550.932 10 0 59411 26100.00000 0 6384394.765 8323255.516 23249360.763 10 0 59411 27000.00000 0 3871277.666 9720275.214 23264585.897 10 0 59411 27900.00000 0 1494628.508 11291502.647 22828077.413 10 0 59411 28800.00000 0 -689641.381 12991604.344 21948447.864 10 0 59411 29700.00000 0 -2635087.564 14766583.443 20642894.252 10 0 59411 30600.00000 0 -4306424.807 16555950.797 18936856.462 10 0 59411 31500.00000 0 -5680745.509 18295183.951 16863518.228 10 0 59411 32400.00000 0 -6748215.577 19918371.655 14463160.414 10 0 59411 33300.00000 0 -7512220.732 21360933.874 11782379.054 10 0 59411 34200.00000 0 -7988958.973 22562304.093 8873183.093 10 0 59411 35100.00000 0 -8206497.945 23468462.295 5791988.992 10 0 59411 36000.00000 0 -8203338.082 24034213.093 2598531.226 10 0 59411 36900.00000 0 -8026542.879 24225113.982 -645290.487 10 0 59411 37800.00000 0 -7729515.621 24018973.211 -3876605.303 10 0 59411 38700.00000 0 -7369516.603 23406854.529 -7032783.936 10 0 59411 39600.00000 0 -7005025.597 22393546.548 -10052646.650 10 0 59411 40500.00000 0 -6693060.753 20997476.710 -12877643.532 10 0 59411 41400.00000 0 -6486566.944 19250072.758 -15452984.559 10 0 59411 42300.00000 0 -6431983.571 17194597.674 -17728697.858 10 0 59411 43200.00000 0 -6567094.436 14884505.687 -19660596.127 10 0 59411 44100.00000 0 -6919250.523 12381386.798 -21211132.858 10 0 59411 45000.00000 0 -7504041.061 9752584.323 -22350132.049 10 0 59411 45900.00000 0 -8324469.678 7068583.423 -23055377.470 10 0 59411 46800.00000 0 -9370671.483 4400278.054 -23313050.100 10 0 59411 47700.00000 0 -10620184.489 1816229.013 -23118004.942 10 0 59411 48600.00000 0 -12038765.686 -619973.786 -22473881.446 10 0 59411 49500.00000 0 -13581719.355 -2852135.845 -21393044.590 10 0 59411 50400.00000 0 -15195683.600 -4833568.863 -19896356.830 10 0 59411 51300.00000 0 -16820801.650 -6528800.136 -18012784.287 10 0 59411 52200.00000 0 -18393187.966 -7914809.396 -15778843.634 10 0 59411 53100.00000 0 -19847586.230 -8981741.386 -13237899.496 10 0 59411 54000.00000 0 -21120107.687 -9733064.470 -10439325.186 10 0 59411 54900.00000 0 -22150934.322 -10185168.860 -7437542.615 10 0 59411 55800.00000 0 -22886872.263 -10366421.749 -4290960.038 10 0 59411 56700.00000 0 -23283646.759 -10315719.911 -1060828.647 10 0 59411 57600.00000 0 -23307840.709 -10080601.864 2189959.024 10 0 59411 58500.00000 0 -22938393.745 -9715000.642 5398104.331 10 0 59411 59400.00000 0 -22167597.551 -9276733.739 8501146.097 10 0 59411 60300.00000 0 -21001544.630 -8824838.060 11438687.080 10 0 59411 61200.00000 0 -19460011.140 -8416864.243 14153578.084 10 0 59411 62100.00000 0 -17575778.640 -8106246.312 16593035.790 10 0 59411 63000.00000 0 -15393423.391 -7939859.052 18709671.930 10 0 59411 63900.00000 0 -12967624.501 -7955867.158 20462413.464 10 0 59411 64800.00000 0 -10361062.253 -8181957.404 21817296.166 10 0 59411 65700.00000 0 -7641994.927 -8634028.435 22748116.712 10 0 59411 66600.00000 0 -4881615.592 -9315393.169 23236931.477 10 0 59411 67500.00000 0 -2151298.975 -10216526.916 23274393.405 10 0 59411 68400.00000 0 480147.421 -11315371.295 22859921.528 10 0 59411 69300.00000 0 2949114.377 -12578180.722 22001700.865 10 0 59411 70200.00000 0 5199596.042 -13960875.543 20716513.624 10 0 59411 71100.00000 0 7185270.665 -15410844.977 19029405.590 10 0 59411 72000.00000 0 8871172.138 -16869124.226 16973194.609 10 0 59411 72900.00000 0 10234884.783 -18272854.811 14587830.849 10 0 59411 73800.00000 0 11267213.599 -19557925.362 11919621.104 10 0 59411 74700.00000 0 11972303.841 -20661682.649 9020332.056 10 0 59411 75600.00000 0 12367206.723 -21525599.689 5946189.465 10 0 59411 76500.00000 0 12480910.942 -22097789.519 2756792.303 10 0 59411 77400.00000 0 12352881.782 -22335259.486 -486037.451 10 0 59411 78300.00000 0 12031170.086 -22205811.735 -3719447.476 10 0 59411 79200.00000 0 11570171.171 -21689510.114 -6880767.472 10 0 59411 80100.00000 0 11028128.276 -20779651.754 -9908717.997 10 0 59411 81000.00000 0 10464485.791 -19483202.123 -12744592.699 10 0 59411 81900.00000 0 9937203.656 -17820674.561 -15333391.430 10 0 59411 82800.00000 0 9500145.932 -15825458.409 -17624882.564 10 0 59411 83700.00000 0 9200653.422 -13542622.655 -19574574.379 10 0 59411 84600.00000 0 9077402.531 -11027243.627 -21144577.072 10 0 59411 85500.00000 0 9158640.658 -8342325.131 -22304338.969 10 0 59412 0.00000 0 9460872.752 -5556396.140 -23031242.905 10 0 59412 900.00000 0 9988055.398 -2740884.390 -23311051.239 10 0 59412 1800.00000 0 10731332.194 32625.921 -23138190.617 10 0 59412 2700.00000 0 11669324.762 2695139.548 -22515870.527 10 0 59412 3600.00000 0 12768966.661 5182885.888 -21456032.662 10 0 59412 4500.00000 0 13986848.008 7439735.368 -19979131.028 10 0 59412 5400.00000 0 15271015.131 9419296.672 -18113746.087 10 0 59412 6300.00000 0 16563150.950 11086607.484 -15896039.225 10 0 59412 7200.00000 0 17801045.105 12419348.126 -13369057.218 10 0 59412 8100.00000 0 18921250.164 13408527.385 -10581899.346 10 0 59412 9000.00000 0 19861811.867 14058611.852 -7588762.872 10 0 59412 9900.00000 0 20564957.624 14387093.578 -4447885.415 10 0 59412 10800.00000 0 20979628.825 14423514.758 -1220405.110 10 0 59412 11700.00000 0 21063748.803 14207991.399 2030838.585 10 0 59412 12600.00000 0 20786129.290 13789299.357 5242538.937 10 0 59412 13500.00000 0 20127933.592 13222605.011 8352165.623 10 0 59412 14400.00000 0 19083633.557 12566938.050 11299192.555 10 0 59412 15300.00000 0 17661419.178 11882514.809 14026284.621 10 0 59412 16200.00000 0 15883043.059 11228026.811 16480419.313 10 0 59412 17100.00000 0 13783106.080 10658010.372 18613920.790 10 0 59412 18000.00000 0 11407814.388 10220409.246 20385385.899 10 0 59412 18900.00000 0 8813260.043 9954433.686 21760484.408 10 0 59412 19800.00000 0 6063297.507 9888806.233 22712618.417 10 0 59412 20700.00000 0 3227104.919 10040467.810 23223428.950 10 0 59412 21600.00000 0 376531.783 10413797.969 23283140.976 10 0 59412 22500.00000 0 -2416656.857 11000381.288 22890741.241 10 0 59412 23400.00000 0 -5083525.707 11779328.894 22053986.520 10 0 59412 24300.00000 0 -7560590.949 12718140.854 20789243.037 10 0 59412 25200.00000 0 -9792210.809 13774072.662 19121160.827 10 0 59412 26100.00000 0 -11732647.157 14895948.085 17082189.783 10 0 59412 27000.00000 0 -13347714.192 16026342.147 14711946.944 10 0 59412 27900.00000 0 -14615947.465 17104042.766 12056447.196 10 0 59412 28800.00000 0 -15529246.276 18066687.882 9167212.094 10 0 59412 29700.00000 0 -16092964.378 18853467.733 6100273.761 10 0 59412 30600.00000 0 -16325446.738 19407779.106 2915092.703 10 0 59412 31500.00000 0 -16257032.981 19679720.360 -326589.776 10 0 59412 32400.00000 0 -15928570.345 19628322.554 -3561942.732 10 0 59412 33300.00000 0 -15389499.257 19223422.940 -6728257.610 10 0 59412 34200.00000 0 -14695592.421 18447101.897 -9764157.865 10 0 59412 35100.00000 0 -13906442.638 17294622.506 -12610783.130 10 0 59412 36000.00000 0 -13082805.033 15774832.589 -15212925.313 10 0 59412 36900.00000 0 -12283905.337 13910011.345 -17520094.941 10 0 59412 37800.00000 0 -11564827.214 11735165.754 -19487497.482 10 0 59412 38700.00000 0 -10974088.326 9296804.587 -21076901.149 10 0 59412 39600.00000 0 -10551506.941 6651239.647 -22257379.625 10 0 59412 40500.00000 0 -10326448.819 3862483.279 -23005915.550 10 0 59412 41400.00000 0 -10316528.356 999827.957 -23307853.120 10 0 59412 42300.00000 0 -10526819.141 -1864792.878 -23157190.791 10 0 59412 43200.00000 0 -10949607.904 -4659554.450 -22556707.995 10 0 59412 44100.00000 0 -11564703.253 -7315487.628 -21517922.681 10 0 59412 45000.00000 0 -12340287.388 -9769109.752 -20060879.607 10 0 59412 45900.00000 0 -13234276.147 -11964830.416 -18213772.418 10 0 59412 46800.00000 0 -14196131.186 -13857032.237 -16012405.727 10 0 59412 47700.00000 0 -15169048.776 -15411739.735 -13499506.653 10 0 59412 48600.00000 0 -16092433.336 -16607806.536 -10723898.384 10 0 59412 49500.00000 0 -16904551.350 -17437571.094 -7739551.272 10 0 59412 50400.00000 0 -17545253.095 -17906953.392 -4604529.874 10 0 59412 51300.00000 0 -17958646.318 -18034988.841 -1379856.705 10 0 59412 52200.00000 0 -18095607.595 -17852819.541 1871684.522 10 0 59412 53100.00000 0 -17916023.815 -17402186.259 5086781.745 10 0 59412 54000.00000 0 -17390667.580 -16733485.981 8202838.311 10 0 59412 54900.00000 0 -16502625.918 -15903478.439 11159202.130 10 0 59412 55800.00000 0 -15248220.906 -14972740.006 13898354.978 10 0 59412 56700.00000 0 -13637382.535 -14002974.023 16367037.857 10 0 59412 57600.00000 0 -11693457.597 -13054292.382 18517289.837 10 0 59412 58500.00000 0 -9452462.416 -12182584.136 20307379.862 10 0 59412 59400.00000 0 -6961810.793 -11437082.608 21702613.552 10 0 59412 60300.00000 0 -4278570.432 -10858233.662 22675999.894 10 0 59412 61200.00000 0 -1467320.895 -10475954.520 23208765.616 10 0 59412 62100.00000 0 1402297.607 -10308355.648 23290708.358 10 0 59412 63000.00000 0 4258242.821 -10360978.428 22920382.849 10 0 59412 63900.00000 0 7028826.235 -10626579.516 22105117.531 10 0 59412 64800.00000 0 9645452.411 -11085469.788 20860862.231 10 0 59412 65700.00000 0 12045229.148 -11706392.607 19211870.500 10 0 59412 66600.00000 0 14173341.315 -12447903.714 17190223.233 10 0 59412 67500.00000 0 15985091.270 -13260194.212 14835202.970 10 0 59412 68400.00000 0 17447522.620 -14087279.788 12192530.938 10 0 59412 69300.00000 0 18540561.291 -14869464.050 9313481.453 10 0 59412 70200.00000 0 19257627.980 -15545972.569 6253890.508 10 0 59412 71100.00000 0 19605697.846 -16057647.042 3073077.313 10 0 59412 72000.00000 0 19604806.178 -16349586.444 -167300.595 10 0 59412 72900.00000 0 19287021.787 -16373624.243 -3404436.921 10 0 59412 73800.00000 0 18694931.909 -16090537.436 -6575588.170 10 0 59412 74700.00000 0 17879702.640 -15471894.360 -9619283.967 10 0 59412 75600.00000 0 16898796.631 -14501463.151 -12476513.045 10 0 59412 76500.00000 0 15813443.849 -13176120.967 -15091862.298 10 0 59412 77400.00000 0 14685971.526 -11506224.854 -17414587.064 10 0 59412 78300.00000 0 13577105.140 -9515427.407 -19399592.384 10 0 59412 79200.00000 0 12543353.456 -7239943.348 -21008306.548 10 0 59412 80100.00000 0 11634587.083 -4727295.991 -22209430.307 10 0 59412 81000.00000 0 10891912.009 -2034593.982 -22979547.434 10 0 59412 81900.00000 0 10345927.259 773591.814 -23303584.910 10 0 59412 82800.00000 0 10015439.985 3627664.651 -23175113.537 10 0 59412 83700.00000 0 9906692.298 6455651.796 -22596482.806 10 0 59412 84600.00000 0 10013132.876 9185959.223 -21578786.659 10 0 59412 85500.00000 0 10315743.746 11750117.471 -20141659.944 10 0 59413 0.00000 0 10783909.270 14085405.165 -18312908.498 10 0 59413 900.00000 0 11376791.722 16137241.157 -16127978.621 10 0 59413 1800.00000 0 12045155.803 17861245.945 -13629275.999 10 0 59413 2700.00000 0 12733565.995 19224885.004 -10865345.480 10 0 59413 3600.00000 0 13382863.584 20208626.524 -7889927.867 10 0 59413 4500.00000 0 13932818.510 20806563.465 -4760911.656 10 0 59413 5400.00000 0 14324843.012 21026474.455 -1539200.457 10 0 59413 6300.00000 0 14504651.141 20889320.954 1712481.241 10 0 59413 7200.00000 0 14424750.178 20428202.434 4930819.617 10 0 59413 8100.00000 0 14046657.048 19686814.518 8053155.213 10 0 59413 9000.00000 0 13342744.489 18717476.270 11018713.314 10 0 59413 9900.00000 0 12297637.641 17578811.249 13769795.715 10 0 59413 10800.00000 0 10909101.024 16333181.594 16252909.743 10 0 59413 11700.00000 0 9188377.693 15043984.667 18419811.865 10 0 59413 12600.00000 0 7159965.853 13772927.295 20228445.216 10 0 59413 13500.00000 0 4860842.046 12577393.115 21643752.979 10 0 59413 14400.00000 0 2339163.346 11508014.012 22638352.317 10 0 59413 15300.00000 0 -347497.093 10606547.553 23193056.530 10 0 59413 16200.00000 0 -3134307.587 9904148.843 23297236.329 10 0 59413 17100.00000 0 -5951638.830 9420108.274 22949014.339 10 0 59413 18000.00000 0 -8727726.086 9161106.801 22155290.080 10 0 59413 18900.00000 0 -11391422.594 9121018.522 20931595.873 10 0 59413 19800.00000 0 -13874930.717 9281267.399 19301787.175 10 0 59413 20700.00000 0 -16116398.337 9611721.878 17297573.798 10 0 59413 21600.00000 0 -18062273.939 10072088.779 14957901.297 10 0 59413 22500.00000 0 -19669323.833 10613747.138 12328194.446 10 0 59413 23400.00000 0 -20906228.923 11181944.452 9459477.317 10 0 59413 24300.00000 0 -21754695.918 11718262.716 6407386.656 10 0 59413 25200.00000 0 -22210037.900 12163250.448 3231097.248 10 0 59413 26100.00000 0 -22281201.122 12459109.957 -7820.218 10 0 59413 27000.00000 0 -21990237.856 12552326.797 -3246587.074 10 0 59413 27900.00000 0 -21371248.085 12396130.659 -6422427.737 10 0 59413 28800.00000 0 -20468834.814 11952683.999 -9473780.702 10 0 59413 29700.00000 0 -19336138.064 11194905.929 -12341486.316 10 0 59413 30600.00000 0 -18032529.944 10107854.060 -14969928.726 10 0 59413 31500.00000 0 -16621067.362 8689605.389 -17308110.082 10 0 59413 32400.00000 0 -15165808.841 6951598.016 -19310636.652 10 0 59413 33300.00000 0 -13729107.518 4918417.869 -20938598.110 10 0 59413 34200.00000 0 -12368993.344 2627037.641 -22160323.190 10 0 59413 35100.00000 0 -11136753.739 125537.756 -22951997.368 10 0 59413 36000.00000 0 -10074813.741 -2528639.307 -23298130.614 10 0 59413 36900.00000 0 -9215004.289 -5270830.566 -23191865.959 10 0 59413 37800.00000 0 -8577291.214 -8031602.651 -22635122.519 10 0 59413 38700.00000 0 -8169018.423 -10739410.183 -21638569.508 10 0 59413 39600.00000 0 -7984697.404 -13323352.979 -20221430.862 10 0 59413 40500.00000 0 -8006352.372 -15715918.187 -18411123.242 10 0 59413 41400.00000 0 -8204407.011 -17855593.620 -16242733.330 10 0 59413 42300.00000 0 -8539075.949 -19689243.259 -13758343.566 10 0 59413 43200.00000 0 -8962202.509 -21174145.537 -11006218.598 10 0 59413 44100.00000 0 -9419465.122 -22279608.731 -8039867.680 10 0 59413 45000.00000 0 -9852858.783 -22988095.239 -4917001.154 10 0 59413 45900.00000 0 -10203345.833 -23295807.228 -1698401.542 10 0 59413 46800.00000 0 -10413562.736 -23212708.878 1553268.154 10 0 59413 47700.00000 0 -10430466.913 -22761984.415 4774694.695 10 0 59413 48600.00000 0 -10207809.994 -21978955.302 7903158.247 10 0 59413 49500.00000 0 -9708331.255 -20909503.067 10877763.961 10 0 59413 50400.00000 0 -8905576.994 -19608065.378 13640636.190 10 0 59413 51300.00000 0 -7785267.741 -18135291.113 16138051.087 10 0 59413 52200.00000 0 -6346154.562 -16555454.479 18321484.916 10 0 59413 53100.00000 0 -4600327.758 -14933738.167 20148557.223 10 0 59413 54000.00000 0 -2572964.496 -13333500.640 21583850.721 10 0 59413 54900.00000 0 -301525.722 -11813642.727 22599592.413 10 0 59413 55800.00000 0 2165564.097 -10426184.016 23176183.484 10 0 59413 56700.00000 0 4770699.304 -9214150.083 23302568.690 10 0 59413 57600.00000 0 7449263.306 -8209858.035 22976439.175 10 0 59413 58500.00000 0 10132096.536 -7433670.818 22204265.816 10 0 59413 59400.00000 0 12748159.916 -6893270.825 21001163.403 10 0 59413 60300.00000 0 15227283.786 -6583481.466 19390588.958 10 0 59413 61200.00000 0 17502888.790 -6486642.562 17403880.554 10 0 59413 62100.00000 0 19514566.655 -6573522.284 15079645.764 10 0 59413 63000.00000 0 21210414.696 -6804726.121 12463011.549 10 0 59413 63900.00000 0 22549027.948 -7132542.780 9604749.978 10 0 59413 64800.00000 0 23501067.174 -7503148.748 6560296.382 10 0 59413 65700.00000 0 24050338.409 -7859078.404 3388678.550 10 0 59413 66600.00000 0 24194339.923 -8141855.501 151377.401 10 0 59413 67500.00000 0 23944254.541 -8294675.124 -3088859.212 10 0 59413 68400.00000 0 23324388.258 -8265023.100 -6269226.962 10 0 59413 69300.00000 0 22371078.997 -8007122.388 -9328076.570 10 0 59413 70200.00000 0 21131121.416 -7484103.200 -12206103.272 10 0 59413 71100.00000 0 19659773.654 -6669805.010 -14847491.550 10 0 59413 72000.00000 0 18018429.283 -5550133.945 -17200993.209 10 0 59413 72900.00000 0 16272051.569 -4123917.504 -19220918.316 10 0 59413 73800.00000 0 14486476.889 -2403219.322 -20868020.188 10 0 59413 74700.00000 0 12725699.610 -413099.209 -22110257.512 10 0 59413 75600.00000 0 11049251.406 1809173.429 -22923419.096 10 0 59413 76500.00000 0 9509784.041 4215422.007 -23291599.195 10 0 59413 77400.00000 0 8150956.348 6748328.681 -23207514.006 10 0 59413 78300.00000 0 7005713.450 9343592.210 -22672652.836 10 0 59413 79200.00000 0 6095030.128 11932389.655 -21697260.334 10 0 59413 80100.00000 0 5427171.028 14444040.805 -20300149.292 10 0 59413 81000.00000 0 4997498.863 16808765.385 -18508346.604 10 0 59413 81900.00000 0 4788838.873 18960418.775 -16356578.158 10 0 59413 82800.00000 0 4772384.431 20839092.152 -13886601.686 10 0 59413 83700.00000 0 4909105.710 22393468.261 -11146399.669 10 0 59413 84600.00000 0 5151601.846 23582833.742 -8189247.407 10 0 59413 85500.00000 0 5446317.969 24378662.989 -5072674.267 10 0 59414 0.00000 0 5736032.620 24765706.494 -1857338.576 10 0 59414 900.00000 0 5962508.953 24742537.155 1394161.737 10 0 59414 1800.00000 0 6069196.899 24321532.141 4618517.576 10 0 59414 2700.00000 0 6003868.934 23528289.737 7752952.399 10 0 59414 3600.00000 0 5721077.738 22400507.783 10736454.838 10 0 59414 4500.00000 0 5184329.141 20986370.620 13510975.233 10 0 59414 5400.00000 0 4367877.558 19342514.022 16022561.765 10 0 59414 6300.00000 0 3258066.814 17531654.730 18222413.373 10 0 59414 7200.00000 0 1854159.007 15619985.402 20067828.551 10 0 59414 8100.00000 0 168615.947 13674445.269 21523031.685 10 0 59414 9000.00000 0 -1773179.025 11759981.517 22559861.347 10 0 59414 9900.00000 0 -3933747.274 9936916.321 23158307.872 10 0 59414 10800.00000 0 -6264854.731 8258529.307 23306890.835 10 0 59414 11700.00000 0 -8709309.483 6768955.666 23002870.148 10 0 59414 12600.00000 0 -11203142.258 5501486.535 22252287.749 10 0 59414 13500.00000 0 -13678079.283 4477340.975 21069840.009 10 0 59414 14400.00000 0 -16064205.076 3704959.031 19478584.076 10 0 59414 15300.00000 0 -18292704.956 3179843.550 17509484.296 10 0 59414 16200.00000 0 -20298573.978 2884955.525 15200807.797 10 0 59414 17100.00000 0 -22023180.465 2791644.718 12597380.860 10 0 59414 18000.00000 0 -23416578.255 2861075.217 9749720.386 10 0 59414 18900.00000 0 -24439472.294 3046084.948 6713056.936 10 0 59414 19800.00000 0 -25064756.439 3293400.244 3546267.866 10 0 59414 20700.00000 0 -25278560.026 3546111.816 310740.900 10 0 59414 21600.00000 0 -25080760.076 3746307.590 -2930810.267 10 0 59414 22500.00000 0 -24484938.176 3837751.332 -6115555.777 10 0 59414 23400.00000 0 -23517784.034 3768494.084 -9181761.622 10 0 59414 24300.00000 0 -22217970.744 3493308.219 -12069980.764 10 0 59414 25200.00000 0 -20634548.612 2975841.219 -14724200.600 10 0 59414 26100.00000 0 -18824924.458 2190398.049 -17092924.848 10 0 59414 27000.00000 0 -16852510.370 1123276.313 -19130169.241 10 0 59414 27900.00000 0 -14784139.571 -226403.018 -20796352.162 10 0 59414 28800.00000 0 -12687356.705 -1846405.558 -22059063.181 10 0 59414 29700.00000 0 -10627694.948 -3711648.062 -22893694.865 10 0 59414 30600.00000 0 -8666052.875 -5785008.444 -23283925.698 10 0 59414 31500.00000 0 -6856280.045 -8018649.456 -23222044.537 10 0 59414 32400.00000 0 -5243071.503 -10355802.818 -22709109.980 10 0 59414 33300.00000 0 -3860258.823 -12732941.312 -21754940.904 10 0 59414 34200.00000 0 -2729568.941 -15082249.799 -20377937.471 10 0 59414 35100.00000 0 -1859902.603 -17334293.388 -18604735.108 10 0 59414 36000.00000 0 -1247162.670 -19420772.207 -16469697.060 10 0 59414 36900.00000 0 -874639.510 -21277247.967 -14014254.383 10 0 59414 37800.00000 0 -713937.178 -22845728.219 -11286105.350 10 0 59414 38700.00000 0 -726401.125 -24076999.608 -8338289.229 10 0 59414 39600.00000 0 -864986.750 -24932611.488 -5228152.312 10 0 59414 40500.00000 0 -1076489.094 -25386425.774 -2016226.495 10 0 59414 41400.00000 0 -1304038.262 -25425667.102 1234957.213 10 0 59414 42300.00000 0 -1489753.688 -25051428.426 4462096.098 10 0 59414 43200.00000 0 -1577443.237 -24278610.499 7602359.067 10 0 59414 44100.00000 0 -1515231.273 -23135297.779 10594620.397 10 0 59414 45000.00000 0 -1258002.807 -21661597.469 13380658.586 10 0 59414 45900.00000 0 -769558.885 -19907991.248 15906295.978 10 0 59414 46800.00000 0 -24390.889 -17933269.906 18122456.232 10 0 59414 47700.00000 0 991002.057 -15802138.639 19986118.676 10 0 59414 48600.00000 0 2277308.733 -13582594.345 21461151.044 10 0 59414 49500.00000 0 3822148.755 -11343185.404 22519004.876 10 0 59414 50400.00000 0 5600373.721 -9150268.925 23139260.780 10 0 59414 51300.00000 0 7574914.014 -7065379.857 23310013.956 10 0 59414 52200.00000 0 9698135.865 -5142821.129 23028093.596 10 0 59414 53100.00000 0 11913651.975 -3427574.288 22299112.918 10 0 59414 54000.00000 0 14158510.324 -1953616.188 21137349.844 10 0 59414 54900.00000 0 16365670.221 -742710.143 19565461.348 10 0 59414 55800.00000 0 18466662.809 196279.976 17614037.516 10 0 59414 56700.00000 0 20394325.780 867526.114 15321004.225 10 0 59414 57600.00000 0 22085499.046 1287819.071 12730885.984 10 0 59414 58500.00000 0 23483569.697 1485617.379 9893943.114 10 0 59414 59400.00000 0 24540760.824 1499603.332 6865199.645 10 0 59414 60300.00000 0 25220069.415 1376807.903 3703380.388 10 0 59414 61200.00000 0 25496772.880 1170384.154 469777.411 10 0 59414 62100.00000 0 25359441.726 937123.346 -2772932.492 10 0 59414 63000.00000 0 24810416.284 734818.679 -5961896.881 10 0 59414 63900.00000 0 23865727.619 619587.845 -9035300.066 10 0 59414 64800.00000 0 22554465.806 643267.414 -11933555.758 10 0 59414 65700.00000 0 20917621.648 850988.977 -14600457.199 10 0 59414 66600.00000 0 19006449.791 1279039.486 -16984262.761 10 0 59414 67500.00000 0 16880420.967 1953096.347 -19038696.379 10 0 59414 68400.00000 0 14604848.067 2886912.372 -20723843.808 10 0 59414 69300.00000 0 12248284.298 4081506.897 -22006927.576 10 0 59414 70200.00000 0 9879801.037 5524898.469 -22862945.850 10 0 59414 71100.00000 0 7566257.929 7192392.047 -23275162.929 10 0 59414 72000.00000 0 5369678.300 9047410.551 -23235441.634 10 0 59414 72900.00000 0 3344838.519 11042837.958 -22744410.854 10 0 59414 73800.00000 0 1537171.274 13122819.810 -21811464.307 10 0 59414 74700.00000 0 -18930.087 15224947.522 -20454589.755 10 0 59414 75600.00000 0 -1301335.616 17282736.721 -18700030.964 10 0 59414 76500.00000 0 -2300880.198 19228296.985 -16581787.890 10 0 59414 77400.00000 0 -3021513.012 20995081.784 -14140963.809 10 0 59414 78300.00000 0 -3479888.982 22520603.530 -11424971.222 10 0 59414 79200.00000 0 -3704419.649 23748999.509 -8486611.350 10 0 59414 80100.00000 0 -3733823.940 24633340.185 -5383044.978 10 0 59414 81000.00000 0 -3615240.734 25137581.958 -2174674.813 10 0 59414 81900.00000 0 -3401984.028 25238081.174 1076038.322 10 0 59414 82800.00000 0 -3151036.915 24924604.686 4305801.428 10 0 59414 83700.00000 0 -2920391.966 24200793.749 7451732.386 10 0 59414 84600.00000 0 -2766352.269 23084061.256 10452594.710 10 0 59414 85500.00000 0 -2740908.932 21604926.660 13249998.612 99